GEFSMA_prec_meanprecacc_330.txt.gz
Total_Precipitation_Accumulation
3.21 3.17 3.09 3.12 3.04 3.02 3.18 3.28 3.20 3.50 3.67 3.27 2.85 2.67 2.69 2.78 2.67 2.67 2.53 2.41 2.40 2.64 3.13 3.45 3.39 3.21 2.97 2.74 2.59 2.49 2.29 2.07 1.97 1.83 1.76 1.86 1.89 1.85 1.82 1.80 1.76 1.68 1.61
3.28 3.45 3.34 3.25 3.05 2.97 3.06 3.18 3.30 3.73 3.69 3.52 3.11 2.83 2.71 2.67 2.51 2.44 2.55 2.75 2.61 2.53 2.73 3.16 3.56 3.58 3.49 3.26 2.99 2.83 2.63 2.46 2.26 1.92 1.73 1.82 1.91 1.94 1.94 1.91 1.81 1.68 1.58
3.15 3.20 3.06 2.94 2.91 2.98 3.17 3.18 3.36 3.55 3.25 3.27 3.10 2.86 2.63 2.41 2.26 2.25 2.44 2.64 2.53 2.52 2.74 3.02 3.34 3.55 3.75 3.89 3.77 3.57 3.15 2.79 2.51 2.20 1.93 1.83 1.80 1.78 1.76 1.78 1.80 1.70 1.55
2.83 3.13 2.93 2.80 3.09 3.08 3.19 3.48 3.61 3.53 3.47 3.50 3.23 2.84 2.58 2.46 2.11 2.01 2.00 2.19 2.44 2.22 2.58 2.92 3.05 3.23 3.69 4.23 4.45 4.39 3.97 3.50 3.07 2.71 2.40 2.16 2.05 1.87 1.64 1.53 1.61 1.60 1.46
2.77 3.11 3.13 3.23 3.26 3.36 3.39 3.20 3.61 3.66 3.55 3.58 3.12 2.91 2.58 2.29 2.10 1.92 1.84 1.83 2.07 2.29 2.43 2.55 2.72 2.92 3.47 4.36 4.76 4.80 4.67 4.24 3.59 3.20 3.02 2.83 2.65 2.31 1.94 1.70 1.62 1.55 1.46
2.86 3.30 3.17 3.16 3.22 3.42 3.52 3.48 3.62 3.63 3.35 3.32 2.96 2.90 2.50 2.01 1.93 1.88 1.72 1.75 1.87 1.93 2.27 2.61 2.90 2.65 3.00 3.67 4.17 4.73 5.06 4.78 4.10 3.66 3.54 3.43 3.33 2.96 2.37 2.02 1.88 1.76 1.66
2.90 3.38 3.17 3.43 3.36 3.37 3.42 3.46 3.60 3.50 3.19 3.38 3.46 3.04 2.44 2.00 1.97 1.75 1.70 1.75 1.82 1.82 2.20 2.68 2.95 2.88 2.60 2.71 3.11 3.69 4.46 4.76 4.50 4.10 3.89 3.73 3.75 3.49 2.88 2.44 2.24 2.01 1.90
3.12 3.17 3.40 3.33 3.37 3.51 3.46 3.44 3.60 3.39 3.02 3.30 3.66 3.72 3.01 2.58 2.10 1.59 1.71 1.83 2.01 2.10 2.18 2.34 2.56 2.84 2.84 3.02 2.76 2.71 3.47 4.35 4.78 4.66 4.29 3.82 3.62 3.52 3.21 2.96 2.65 2.41 2.27
3.34 3.34 3.33 3.24 3.26 3.07 3.16 3.25 3.28 3.31 3.24 3.18 3.49 3.83 3.38 2.88 2.48 1.87 1.74 1.78 2.05 2.38 2.38 2.40 2.45 2.75 2.94 3.38 3.48 3.10 2.92 3.40 4.22 4.98 4.94 4.27 3.63 3.37 3.34 3.27 3.15 2.86 2.62
3.17 2.98 2.93 3.10 3.12 2.92 2.98 2.64 2.81 3.02 3.01 2.87 3.15 3.20 3.22 3.22 3.12 2.43 1.97 1.80 1.96 2.18 2.33 2.27 2.32 2.59 2.91 3.25 3.54 3.35 2.86 2.68 3.11 4.13 4.78 4.68 4.18 3.66 3.37 3.39 3.65 3.60 3.19
2.94 2.60 2.63 2.84 2.80 2.71 2.62 2.53 2.73 2.58 2.50 2.57 2.80 2.99 3.07 3.16 3.04 2.86 2.41 2.35 2.30 2.15 2.10 2.16 2.39 2.55 2.79 3.12 3.50 3.24 3.02 2.80 2.65 2.87 3.49 3.99 4.15 3.98 3.79 4.01 4.48 4.71 4.46
2.66 2.36 2.24 2.42 2.53 2.57 2.53 2.50 2.59 2.47 2.48 2.62 2.62 2.69 2.94 2.94 2.90 3.06 2.63 2.47 2.48 2.22 2.15 2.25 2.28 2.50 2.62 2.86 2.96 3.06 2.97 2.77 2.60 2.56 2.74 3.07 3.36 3.54 3.65 3.98 4.54 4.98 5.21
2.31 2.24 2.24 2.34 2.36 2.42 2.31 2.35 2.39 2.43 2.61 2.68 2.59 2.53 2.65 2.69 2.81 3.07 3.02 2.70 2.58 2.37 2.42 2.36 2.23 2.34 2.31 2.47 2.58 2.63 2.43 2.31 2.19 2.17 2.24 2.39 2.47 2.68 2.94 3.39 3.95 4.53 4.91
2.26 2.34 2.31 2.17 2.12 2.22 2.10 2.37 2.29 2.35 2.58 2.64 2.40 2.66 2.67 2.66 2.95 3.19 3.30 3.39 3.05 2.72 2.64 2.58 2.46 2.28 2.30 2.33 2.37 2.32 2.11 2.04 1.79 1.77 1.85 1.96 2.05 2.14 2.35 2.64 3.16 3.56 3.72
2.28 2.41 2.35 2.24 2.14 2.23 2.34 2.62 2.56 2.50 2.71 2.70 2.70 2.90 2.82 2.76 2.89 3.02 3.23 3.49 3.58 3.18 2.95 2.92 2.73 2.40 2.29 2.32 2.35 2.10 2.14 2.07 1.83 1.72 1.64 1.60 1.69 1.78 1.83 1.99 2.27 2.46 2.62
2.10 2.28 2.40 2.33 2.24 2.28 2.47 2.67 2.65 2.80 2.97 2.99 3.05 3.13 3.07 2.88 2.95 2.99 3.04 3.30 3.64 3.56 3.18 2.80 2.58 2.29 2.17 2.02 2.27 2.07 2.10 2.12 1.92 1.78 1.61 1.51 1.54 1.57 1.58 1.62 1.72 1.86 2.03
2.05 2.12 2.30 2.36 2.31 2.35 2.47 2.55 2.51 2.82 2.96 2.99 2.96 2.95 2.92 3.06 3.04 2.92 3.02 3.20 3.48 3.57 3.20 2.63 2.50 2.45 2.44 2.34 2.35 2.22 2.10 2.05 1.86 1.75 1.60 1.54 1.53 1.54 1.57 1.56 1.58 1.57 1.60
2.09 2.09 2.20 2.24 2.14 2.16 2.37 2.41 2.45 2.73 2.89 2.78 2.78 2.78 2.57 2.64 2.72 2.59 2.73 2.81 2.95 3.21 3.14 2.80 2.71 2.67 2.61 2.49 2.49 2.46 2.23 2.01 1.75 1.74 1.57 1.51 1.54 1.54 1.54 1.53 1.55 1.55 1.56
1.92 1.96 1.99 2.02 2.07 2.22 2.32 2.31 2.33 2.34 2.37 2.44 2.66 2.78 2.57 2.55 2.47 2.47 2.50 2.48 2.56 2.67 2.92 2.84 2.69 2.73 2.65 2.65 2.57 2.35 2.19 2.10 1.74 1.69 1.66 1.57 1.53 1.48 1.46 1.45 1.46 1.55 1.70
1.75 1.82 1.90 2.00 2.07 2.14 2.19 2.26 2.33 2.26 2.22 2.27 2.42 2.49 2.46 2.43 2.36 2.46 2.38 2.37 2.45 2.61 2.75 2.79 2.69 2.79 2.77 2.72 2.74 2.52 2.51 2.37 2.14 1.87 1.83 1.73 1.72 1.69 1.60 1.48 1.43 1.47 1.63
1.82 1.89 1.97 1.97 1.97 1.96 1.89 1.95 2.04 2.06 2.18 2.13 2.04 2.05 2.07 2.12 2.11 2.15 2.00 2.18 2.43 2.58 2.63 2.65 2.64 2.82 2.96 2.97 2.80 2.73 2.77 2.73 2.50 2.17 2.04 1.88 1.83 1.74 1.75 1.70 1.58 1.49 1.50
1.92 1.95 1.90 1.95 1.95 1.68 1.86 1.91 1.92 2.01 2.08 2.09 2.00 1.89 1.79 1.79 1.73 1.73 1.69 1.77 2.07 2.31 2.45 2.59 2.57 2.69 2.91 3.09 3.21 3.17 3.02 2.90 2.81 2.62 2.50 2.40 2.23 2.16 2.04 1.88 1.82 1.69 1.56
2.04 2.00 1.92 1.92 1.95 2.01 2.07 1.91 1.78 1.75 1.84 1.90 1.87 1.84 1.61 1.53 1.71 1.68 1.73 1.70 1.72 1.88 2.04 2.27 2.37 2.33 2.52 2.83 3.10 3.01 3.16 3.21 3.11 3.06 3.05 2.92 2.61 2.39 2.14 1.96 1.83 1.56 1.43
2.24 2.21 2.15 2.06 2.04 2.03 2.04 1.84 1.85 1.76 1.77 1.76 1.78 1.81 1.80 1.72 1.79 1.91 1.88 1.80 1.68 1.64 1.73 1.81 1.93 2.06 2.30 2.64 2.92 2.88 2.96 3.06 3.07 3.03 3.06 3.01 2.69 2.49 2.22 2.07 2.02 1.70 1.44
2.36 2.29 2.23 2.24 2.18 2.20 2.28 2.08 2.11 1.95 1.93 1.93 1.96 1.96 1.94 1.84 1.99 1.95 1.84 1.81 1.76 1.75 1.81 1.89 1.84 1.94 2.18 2.33 2.53 2.65 2.62 2.68 2.61 2.53 2.66 2.83 2.78 2.65 2.44 2.20 2.04 1.87 1.52
2.38 2.40 2.39 2.36 2.36 2.40 2.65 2.46 2.30 2.12 2.11 2.10 2.20 2.18 2.22 2.07 2.07 2.00 1.83 1.84 1.86 1.88 1.99 1.94 1.89 1.84 1.86 2.09 2.35 2.38 2.56 2.75 2.62 2.40 2.15 2.31 2.47 2.67 2.75 2.47 2.21 2.07 1.95

GEFSMA_prec_meanprecacc_336.txt.gz
Total_Precipitation_Accumulation
3.36 3.29 3.21 3.25 3.24 3.22 3.36 3.42 3.32 3.61 3.78 3.37 2.95 2.76 2.78 2.88 2.79 2.81 2.66 2.47 2.45 2.69 3.19 3.51 3.46 3.28 3.05 2.84 2.70 2.61 2.43 2.19 2.06 1.90 1.83 1.92 1.94 1.89 1.86 1.85 1.82 1.75 1.67
3.46 3.58 3.45 3.37 3.16 3.05 3.13 3.25 3.38 3.81 3.78 3.61 3.21 2.92 2.79 2.77 2.61 2.54 2.64 2.82 2.66 2.57 2.77 3.20 3.63 3.66 3.59 3.38 3.11 2.93 2.75 2.58 2.34 1.99 1.80 1.87 1.97 1.98 1.97 1.94 1.84 1.72 1.63
3.28 3.29 3.14 3.01 2.97 3.03 3.22 3.24 3.43 3.63 3.34 3.37 3.22 2.97 2.71 2.49 2.34 2.33 2.51 2.71 2.59 2.57 2.78 3.06 3.39 3.62 3.84 3.98 3.86 3.68 3.29 2.93 2.60 2.27 1.99 1.88 1.86 1.84 1.81 1.82 1.83 1.73 1.59
2.87 3.18 2.98 2.86 3.14 3.12 3.25 3.54 3.69 3.63 3.60 3.63 3.34 2.93 2.67 2.55 2.17 2.07 2.05 2.24 2.49 2.28 2.63 2.96 3.09 3.27 3.74 4.30 4.52 4.46 4.05 3.62 3.24 2.84 2.49 2.24 2.12 1.94 1.71 1.59 1.66 1.64 1.50
2.80 3.15 3.18 3.27 3.30 3.42 3.45 3.26 3.70 3.78 3.70 3.73 3.25 3.00 2.64 2.36 2.17 1.97 1.88 1.85 2.09 2.31 2.46 2.58 2.75 2.95 3.51 4.42 4.86 4.92 4.76 4.31 3.68 3.36 3.16 2.92 2.73 2.41 2.03 1.77 1.68 1.60 1.51
2.89 3.33 3.21 3.19 3.25 3.46 3.57 3.53 3.68 3.73 3.47 3.45 3.07 2.99 2.56 2.07 1.97 1.91 1.74 1.75 1.88 1.94 2.29 2.64 2.95 2.69 3.05 3.72 4.21 4.77 5.11 4.83 4.16 3.74 3.67 3.57 3.45 3.07 2.49 2.11 1.96 1.82 1.71
2.91 3.40 3.19 3.47 3.40 3.42 3.47 3.51 3.67 3.58 3.27 3.46 3.56 3.12 2.49 2.04 2.00 1.76 1.70 1.76 1.83 1.84 2.22 2.70 3.00 2.94 2.66 2.75 3.15 3.71 4.49 4.80 4.54 4.17 3.96 3.84 3.88 3.63 3.02 2.55 2.33 2.09 1.96
3.13 3.18 3.42 3.37 3.41 3.58 3.54 3.51 3.68 3.45 3.08 3.35 3.74 3.81 3.08 2.63 2.13 1.60 1.72 1.84 2.03 2.12 2.20 2.36 2.58 2.87 2.88 3.07 2.80 2.75 3.51 4.39 4.81 4.71 4.37 3.91 3.74 3.66 3.37 3.10 2.76 2.48 2.32
3.36 3.36 3.35 3.27 3.29 3.13 3.24 3.33 3.36 3.37 3.30 3.23 3.54 3.90 3.47 2.97 2.53 1.89 1.77 1.80 2.07 2.40 2.40 2.43 2.49 2.77 2.96 3.44 3.54 3.15 2.96 3.44 4.27 5.02 4.99 4.34 3.71 3.48 3.45 3.38 3.24 2.93 2.66
3.19 3.01 2.96 3.14 3.16 2.96 3.03 2.68 2.86 3.07 3.07 2.92 3.21 3.27 3.30 3.30 3.19 2.48 2.02 1.83 1.99 2.21 2.35 2.30 2.36 2.63 2.96 3.32 3.65 3.43 2.90 2.71 3.15 4.17 4.84 4.75 4.25 3.75 3.49 3.49 3.72 3.66 3.23
2.97 2.63 2.66 2.89 2.85 2.75 2.66 2.56 2.76 2.61 2.53 2.61 2.86 3.06 3.14 3.23 3.09 2.90 2.45 2.39 2.35 2.21 2.15 2.21 2.43 2.62 2.85 3.17 3.59 3.32 3.08 2.85 2.69 2.91 3.54 4.06 4.23 4.06 3.90 4.11 4.57 4.78 4.50
2.71 2.40 2.29 2.47 2.58 2.62 2.57 2.53 2.61 2.51 2.55 2.69 2.70 2.78 3.02 3.01 2.98 3.12 2.67 2.51 2.53 2.26 2.20 2.32 2.37 2.60 2.71 2.92 3.02 3.12 3.01 2.80 2.62 2.58 2.76 3.11 3.41 3.59 3.71 4.06 4.62 5.06 5.27
2.36 2.30 2.29 2.39 2.41 2.47 2.35 2.39 2.44 2.48 2.67 2.76 2.69 2.63 2.74 2.76 2.87 3.13 3.07 2.75 2.62 2.41 2.47 2.39 2.27 2.38 2.37 2.53 2.65 2.69 2.47 2.34 2.22 2.19 2.26 2.41 2.49 2.71 2.98 3.44 4.01 4.59 4.98
2.31 2.39 2.36 2.21 2.16 2.26 2.14 2.42 2.34 2.41 2.65 2.73 2.48 2.74 2.75 2.74 3.02 3.26 3.36 3.45 3.11 2.79 2.71 2.65 2.51 2.32 2.34 2.38 2.42 2.37 2.13 2.07 1.82 1.79 1.87 1.97 2.06 2.17 2.38 2.68 3.20 3.60 3.76
2.32 2.44 2.38 2.27 2.17 2.27 2.38 2.66 2.61 2.55 2.77 2.77 2.77 2.97 2.90 2.83 2.97 3.09 3.31 3.57 3.67 3.27 3.04 3.01 2.81 2.46 2.34 2.36 2.38 2.12 2.16 2.09 1.84 1.73 1.64 1.61 1.70 1.80 1.85 2.01 2.30 2.50 2.66
2.12 2.30 2.42 2.35 2.27 2.32 2.51 2.71 2.70 2.84 3.01 3.04 3.10 3.19 3.14 2.94 3.03 3.08 3.12 3.37 3.71 3.64 3.24 2.86 2.65 2.33 2.20 2.04 2.29 2.08 2.12 2.13 1.93 1.78 1.61 1.52 1.55 1.59 1.59 1.63 1.74 1.88 2.06
2.07 2.14 2.32 2.39 2.34 2.39 2.52 2.59 2.55 2.86 3.00 3.03 3.02 3.01 2.98 3.14 3.13 3.00 3.10 3.29 3.57 3.67 3.26 2.68 2.55 2.49 2.49 2.37 2.38 2.25 2.12 2.08 1.87 1.76 1.61 1.55 1.55 1.56 1.58 1.57 1.59 1.58 1.61
2.11 2.11 2.23 2.28 2.18 2.20 2.42 2.44 2.48 2.76 2.93 2.82 2.83 2.84 2.63 2.71 2.81 2.67 2.81 2.89 3.04 3.30 3.20 2.84 2.76 2.71 2.68 2.57 2.54 2.48 2.25 2.02 1.75 1.75 1.58 1.53 1.56 1.56 1.56 1.54 1.56 1.56 1.57
1.94 1.98 2.02 2.05 2.11 2.26 2.37 2.37 2.39 2.38 2.40 2.47 2.70 2.83 2.61 2.60 2.53 2.55 2.58 2.56 2.63 2.73 2.98 2.89 2.74 2.79 2.71 2.71 2.62 2.39 2.22 2.12 1.75 1.70 1.67 1.58 1.54 1.49 1.47 1.46 1.46 1.55 1.70
1.77 1.84 1.92 2.02 2.10 2.17 2.23 2.32 2.39 2.30 2.26 2.30 2.44 2.52 2.50 2.46 2.40 2.51 2.44 2.45 2.52 2.68 2.82 2.87 2.76 2.86 2.84 2.79 2.82 2.59 2.56 2.40 2.17 1.89 1.84 1.74 1.73 1.69 1.61 1.49 1.43 1.48 1.64
1.83 1.90 1.98 2.00 1.99 1.98 1.91 1.98 2.08 2.09 2.22 2.16 2.07 2.08 2.10 2.14 2.13 2.18 2.04 2.23 2.49 2.65 2.71 2.72 2.72 2.90 3.04 3.07 2.89 2.81 2.84 2.77 2.54 2.20 2.06 1.88 1.83 1.74 1.76 1.71 1.59 1.50 1.50
1.93 1.97 1.92 1.97 1.97 1.70 1.88 1.94 1.94 2.03 2.11 2.12 2.04 1.92 1.81 1.81 1.75 1.76 1.72 1.82 2.13 2.37 2.52 2.67 2.65 2.76 2.98 3.17 3.28 3.23 3.09 2.96 2.87 2.65 2.54 2.43 2.25 2.17 2.05 1.89 1.83 1.70 1.57
2.07 2.03 1.95 1.96 1.98 2.04 2.10 1.93 1.79 1.76 1.86 1.92 1.89 1.86 1.63 1.54 1.72 1.70 1.75 1.73 1.76 1.93 2.09 2.33 2.43 2.38 2.58 2.89 3.18 3.07 3.23 3.28 3.17 3.11 3.11 2.96 2.64 2.42 2.15 1.97 1.85 1.57 1.44
2.27 2.25 2.18 2.10 2.08 2.06 2.06 1.86 1.85 1.77 1.77 1.78 1.79 1.83 1.82 1.73 1.79 1.93 1.90 1.82 1.71 1.67 1.77 1.85 1.96 2.10 2.34 2.69 2.98 2.95 3.03 3.14 3.14 3.09 3.13 3.05 2.71 2.51 2.23 2.08 2.04 1.72 1.45
2.40 2.32 2.25 2.27 2.22 2.22 2.29 2.09 2.12 1.96 1.94 1.94 1.97 1.97 1.95 1.85 2.00 1.96 1.85 1.83 1.79 1.78 1.85 1.94 1.89 1.98 2.21 2.36 2.57 2.69 2.67 2.74 2.66 2.57 2.73 2.90 2.82 2.69 2.48 2.24 2.07 1.91 1.55
2.44 2.44 2.43 2.40 2.39 2.42 2.66 2.48 2.31 2.14 2.13 2.12 2.22 2.20 2.23 2.08 2.08 2.01 1.85 1.86 1.88 1.90 2.01 1.97 1.93 1.88 1.90 2.13 2.39 2.43 2.62 2.82 2.68 2.45 2.21 2.37 2.53 2.73 2.80 2.50 2.24 2.12 1.99

GEFSMA_prec_meanprecacc_342.txt.gz
Total_Precipitation_Accumulation
3.48 3.39 3.28 3.35 3.35 3.30 3.43 3.48 3.36 3.66 3.85 3.43 3.02 2.85 2.90 3.00 2.92 2.93 2.73 2.53 2.49 2.74 3.25 3.58 3.54 3.34 3.10 2.88 2.75 2.66 2.54 2.37 2.27 2.07 1.94 2.02 2.03 1.97 1.93 1.92 1.87 1.80 1.72
3.62 3.69 3.51 3.42 3.22 3.11 3.18 3.31 3.42 3.87 3.85 3.67 3.27 3.00 2.88 2.84 2.69 2.63 2.72 2.89 2.71 2.62 2.83 3.28 3.70 3.72 3.65 3.43 3.15 2.98 2.82 2.72 2.54 2.16 1.93 1.98 2.07 2.07 2.06 2.01 1.89 1.76 1.67
3.39 3.36 3.17 3.04 3.01 3.07 3.26 3.29 3.48 3.67 3.39 3.43 3.29 3.03 2.77 2.54 2.39 2.39 2.58 2.78 2.65 2.62 2.84 3.11 3.44 3.68 3.90 4.04 3.91 3.73 3.36 3.03 2.77 2.43 2.11 1.97 1.94 1.93 1.91 1.90 1.89 1.79 1.65
2.92 3.22 3.01 2.88 3.17 3.17 3.29 3.60 3.75 3.68 3.68 3.73 3.43 3.00 2.73 2.59 2.22 2.12 2.13 2.33 2.55 2.33 2.69 3.01 3.13 3.32 3.80 4.37 4.59 4.52 4.10 3.67 3.38 3.03 2.63 2.33 2.20 2.02 1.80 1.68 1.72 1.69 1.55
2.83 3.17 3.19 3.28 3.31 3.44 3.48 3.30 3.75 3.83 3.78 3.81 3.32 3.06 2.70 2.41 2.23 2.03 1.95 1.93 2.17 2.36 2.50 2.61 2.79 3.00 3.57 4.50 4.94 4.98 4.81 4.35 3.75 3.53 3.35 3.05 2.82 2.48 2.11 1.85 1.74 1.64 1.55
2.91 3.34 3.22 3.20 3.26 3.47 3.59 3.55 3.71 3.76 3.52 3.51 3.14 3.08 2.64 2.14 2.04 1.99 1.81 1.83 1.95 2.00 2.34 2.68 2.98 2.74 3.10 3.78 4.27 4.81 5.15 4.86 4.20 3.81 3.81 3.71 3.56 3.16 2.58 2.20 2.03 1.87 1.75
2.93 3.42 3.20 3.48 3.41 3.43 3.49 3.54 3.69 3.61 3.32 3.52 3.63 3.19 2.57 2.11 2.07 1.84 1.79 1.84 1.90 1.91 2.29 2.76 3.05 2.98 2.70 2.79 3.18 3.75 4.54 4.85 4.59 4.20 4.01 3.94 4.02 3.77 3.15 2.66 2.42 2.15 2.00
3.16 3.19 3.43 3.38 3.43 3.60 3.57 3.54 3.70 3.47 3.11 3.40 3.78 3.85 3.12 2.68 2.18 1.66 1.78 1.91 2.09 2.19 2.28 2.46 2.66 2.93 2.94 3.12 2.83 2.80 3.56 4.44 4.86 4.74 4.40 3.96 3.82 3.77 3.49 3.22 2.86 2.57 2.40
3.40 3.40 3.38 3.29 3.31 3.15 3.26 3.35 3.37 3.39 3.31 3.25 3.56 3.92 3.50 3.01 2.57 1.93 1.81 1.86 2.13 2.44 2.44 2.49 2.54 2.84 3.02 3.50 3.60 3.21 3.01 3.50 4.33 5.07 5.04 4.38 3.77 3.54 3.53 3.47 3.35 3.05 2.76
3.23 3.05 3.00 3.17 3.19 2.98 3.05 2.70 2.87 3.08 3.08 2.94 3.23 3.29 3.32 3.32 3.21 2.51 2.05 1.88 2.03 2.23 2.38 2.33 2.39 2.66 2.99 3.37 3.72 3.51 2.97 2.77 3.22 4.25 4.90 4.82 4.33 3.82 3.54 3.55 3.81 3.79 3.38
2.99 2.66 2.69 2.90 2.87 2.77 2.68 2.58 2.78 2.62 2.54 2.62 2.88 3.09 3.18 3.27 3.13 2.94 2.49 2.43 2.38 2.23 2.19 2.24 2.46 2.65 2.89 3.21 3.64 3.42 3.18 2.94 2.76 2.99 3.65 4.18 4.34 4.15 3.98 4.21 4.66 4.87 4.63
2.74 2.42 2.30 2.48 2.60 2.64 2.59 2.55 2.64 2.52 2.56 2.70 2.72 2.79 3.04 3.06 3.03 3.17 2.71 2.54 2.56 2.29 2.23 2.36 2.41 2.64 2.74 2.95 3.05 3.17 3.07 2.88 2.71 2.66 2.88 3.25 3.54 3.70 3.80 4.17 4.74 5.16 5.36
2.38 2.31 2.30 2.41 2.44 2.49 2.38 2.43 2.48 2.50 2.69 2.77 2.71 2.65 2.76 2.79 2.90 3.17 3.12 2.78 2.64 2.43 2.49 2.43 2.31 2.41 2.39 2.56 2.69 2.74 2.51 2.38 2.27 2.25 2.32 2.49 2.57 2.80 3.07 3.52 4.12 4.69 5.05
2.32 2.41 2.39 2.24 2.19 2.29 2.17 2.45 2.38 2.44 2.68 2.76 2.50 2.77 2.78 2.76 3.05 3.28 3.39 3.48 3.14 2.82 2.74 2.69 2.54 2.35 2.37 2.41 2.46 2.41 2.17 2.10 1.84 1.83 1.91 2.02 2.11 2.22 2.45 2.74 3.27 3.70 3.84
2.33 2.46 2.41 2.30 2.20 2.29 2.41 2.69 2.64 2.58 2.80 2.79 2.81 3.01 2.94 2.85 3.00 3.13 3.34 3.61 3.72 3.31 3.07 3.04 2.85 2.48 2.36 2.38 2.41 2.15 2.19 2.11 1.86 1.75 1.67 1.64 1.73 1.84 1.89 2.05 2.34 2.56 2.74
2.17 2.35 2.46 2.37 2.29 2.34 2.53 2.73 2.72 2.86 3.03 3.07 3.15 3.23 3.17 2.98 3.07 3.11 3.15 3.41 3.76 3.69 3.28 2.89 2.68 2.35 2.22 2.07 2.33 2.11 2.15 2.16 1.95 1.81 1.63 1.54 1.57 1.61 1.61 1.64 1.77 1.92 2.12
2.17 2.21 2.35 2.40 2.35 2.41 2.54 2.61 2.57 2.89 3.03 3.06 3.05 3.05 3.03 3.18 3.15 3.02 3.13 3.33 3.62 3.72 3.31 2.73 2.59 2.53 2.54 2.42 2.43 2.29 2.16 2.11 1.90 1.79 1.63 1.57 1.56 1.57 1.59 1.58 1.60 1.60 1.64
2.20 2.16 2.25 2.29 2.19 2.21 2.44 2.46 2.51 2.81 2.98 2.87 2.89 2.91 2.67 2.74 2.83 2.69 2.83 2.92 3.08 3.34 3.24 2.88 2.80 2.76 2.72 2.62 2.60 2.54 2.29 2.05 1.79 1.78 1.60 1.54 1.58 1.57 1.57 1.55 1.57 1.57 1.59
1.98 1.99 2.03 2.06 2.12 2.28 2.40 2.40 2.43 2.43 2.46 2.54 2.76 2.87 2.66 2.63 2.55 2.56 2.60 2.59 2.66 2.76 3.02 2.93 2.78 2.83 2.75 2.75 2.68 2.46 2.27 2.16 1.79 1.73 1.70 1.60 1.55 1.50 1.49 1.48 1.47 1.56 1.72
1.79 1.85 1.94 2.04 2.12 2.20 2.27 2.37 2.44 2.34 2.31 2.36 2.49 2.56 2.55 2.51 2.43 2.53 2.45 2.47 2.54 2.71 2.87 2.92 2.81 2.89 2.88 2.84 2.87 2.67 2.66 2.47 2.21 1.93 1.87 1.76 1.75 1.71 1.63 1.51 1.45 1.49 1.66
1.85 1.93 2.01 2.03 2.03 2.02 1.95 2.01 2.11 2.11 2.24 2.18 2.09 2.10 2.13 2.18 2.18 2.22 2.07 2.26 2.53 2.69 2.75 2.78 2.78 2.97 3.10 3.14 2.95 2.88 2.92 2.84 2.59 2.24 2.10 1.93 1.86 1.76 1.77 1.73 1.61 1.52 1.52
1.95 1.99 1.95 1.99 1.99 1.72 1.91 1.96 1.96 2.05 2.12 2.13 2.05 1.93 1.83 1.82 1.77 1.80 1.77 1.87 2.18 2.42 2.57 2.72 2.70 2.80 3.01 3.20 3.32 3.28 3.14 3.01 2.91 2.69 2.58 2.47 2.29 2.21 2.07 1.91 1.85 1.72 1.59
2.09 2.05 1.98 1.98 2.01 2.07 2.12 1.95 1.81 1.78 1.87 1.93 1.90 1.87 1.64 1.55 1.73 1.71 1.77 1.75 1.78 1.95 2.13 2.38 2.48 2.41 2.60 2.91 3.20 3.11 3.26 3.32 3.21 3.16 3.16 3.00 2.69 2.46 2.18 2.00 1.88 1.60 1.48
2.31 2.29 2.22 2.14 2.11 2.09 2.08 1.87 1.87 1.78 1.78 1.78 1.80 1.84 1.82 1.74 1.80 1.93 1.90 1.82 1.71 1.68 1.80 1.87 1.98 2.11 2.35 2.70 3.00 2.96 3.05 3.16 3.17 3.12 3.17 3.10 2.76 2.55 2.26 2.10 2.07 1.77 1.50
2.45 2.37 2.30 2.31 2.25 2.24 2.32 2.11 2.13 1.97 1.95 1.95 1.98 1.98 1.96 1.86 2.01 1.97 1.86 1.84 1.79 1.78 1.87 1.97 1.90 1.99 2.22 2.38 2.59 2.71 2.69 2.77 2.68 2.60 2.76 2.94 2.87 2.75 2.53 2.28 2.13 1.96 1.60
2.49 2.50 2.48 2.43 2.42 2.45 2.69 2.50 2.34 2.15 2.14 2.13 2.23 2.22 2.26 2.09 2.09 2.03 1.86 1.87 1.89 1.91 2.03 1.98 1.94 1.89 1.91 2.14 2.40 2.44 2.64 2.85 2.70 2.48 2.24 2.41 2.56 2.78 2.85 2.56 2.31 2.17 2.04

GEFSMA_prec_meanprecacc_348.txt.gz
Total_Precipitation_Accumulation
3.55 3.48 3.42 3.43 3.40 3.34 3.46 3.50 3.38 3.71 3.89 3.48 3.05 2.89 2.95 3.05 2.99 3.00 2.78 2.58 2.53 2.79 3.31 3.67 3.63 3.44 3.21 2.99 2.86 2.80 2.73 2.52 2.37 2.18 2.07 2.14 2.12 2.06 2.03 2.01 1.95 1.87 1.77
3.71 3.79 3.61 3.49 3.26 3.14 3.20 3.33 3.45 3.89 3.87 3.69 3.29 3.03 2.91 2.89 2.74 2.66 2.76 2.92 2.75 2.66 2.88 3.36 3.80 3.83 3.75 3.52 3.22 3.06 2.95 2.86 2.65 2.28 2.05 2.12 2.21 2.19 2.16 2.11 1.98 1.83 1.73
3.49 3.45 3.25 3.10 3.05 3.10 3.28 3.32 3.51 3.69 3.41 3.45 3.30 3.06 2.79 2.57 2.43 2.43 2.61 2.81 2.68 2.66 2.90 3.18 3.50 3.75 4.00 4.16 4.01 3.82 3.45 3.13 2.86 2.52 2.21 2.08 2.06 2.06 2.01 1.99 1.99 1.86 1.71
2.98 3.28 3.06 2.93 3.21 3.21 3.32 3.62 3.78 3.70 3.69 3.74 3.45 3.03 2.75 2.62 2.25 2.16 2.17 2.37 2.59 2.37 2.75 3.07 3.18 3.38 3.89 4.50 4.72 4.64 4.22 3.78 3.45 3.10 2.71 2.41 2.29 2.12 1.92 1.77 1.80 1.76 1.61
2.88 3.22 3.24 3.32 3.35 3.47 3.51 3.33 3.78 3.84 3.80 3.84 3.34 3.08 2.72 2.44 2.26 2.06 1.98 1.96 2.21 2.42 2.58 2.68 2.85 3.06 3.65 4.60 5.05 5.09 4.91 4.45 3.83 3.62 3.45 3.14 2.92 2.57 2.21 1.95 1.83 1.71 1.60
2.95 3.38 3.25 3.23 3.29 3.50 3.61 3.57 3.73 3.79 3.54 3.54 3.17 3.11 2.67 2.16 2.07 2.02 1.85 1.86 2.00 2.07 2.41 2.75 3.05 2.80 3.17 3.86 4.37 4.91 5.23 4.95 4.29 3.91 3.97 3.85 3.69 3.29 2.68 2.30 2.12 1.95 1.81
2.97 3.44 3.21 3.49 3.42 3.45 3.50 3.55 3.71 3.63 3.35 3.54 3.66 3.21 2.59 2.12 2.09 1.86 1.82 1.89 1.95 1.97 2.34 2.81 3.09 3.02 2.74 2.83 3.23 3.81 4.61 4.93 4.68 4.29 4.16 4.14 4.17 3.92 3.27 2.77 2.52 2.25 2.08
3.18 3.22 3.45 3.39 3.44 3.62 3.59 3.56 3.72 3.50 3.14 3.42 3.80 3.86 3.13 2.69 2.19 1.67 1.80 1.95 2.16 2.27 2.35 2.53 2.70 2.97 2.97 3.15 2.86 2.84 3.61 4.51 4.93 4.82 4.49 4.14 4.05 3.95 3.63 3.35 2.98 2.69 2.49
3.44 3.45 3.41 3.32 3.35 3.19 3.30 3.39 3.41 3.42 3.34 3.26 3.57 3.93 3.51 3.02 2.58 1.95 1.83 1.88 2.16 2.47 2.49 2.55 2.60 2.89 3.06 3.52 3.62 3.24 3.07 3.60 4.45 5.20 5.14 4.49 3.97 3.77 3.70 3.60 3.46 3.16 2.86
3.26 3.09 3.03 3.19 3.21 3.00 3.09 2.74 2.91 3.10 3.10 2.95 3.25 3.31 3.34 3.34 3.24 2.53 2.07 1.89 2.04 2.25 2.40 2.35 2.42 2.70 3.04 3.40 3.75 3.54 3.01 2.86 3.33 4.39 5.02 4.91 4.46 4.01 3.69 3.69 3.95 3.91 3.50
3.00 2.67 2.70 2.92 2.89 2.80 2.72 2.62 2.82 2.64 2.56 2.63 2.89 3.10 3.19 3.29 3.16 2.96 2.51 2.44 2.39 2.25 2.20 2.25 2.47 2.66 2.91 3.23 3.67 3.46 3.23 2.99 2.84 3.08 3.73 4.27 4.46 4.33 4.13 4.34 4.79 5.00 4.76
2.74 2.43 2.32 2.51 2.64 2.69 2.67 2.62 2.69 2.56 2.58 2.71 2.73 2.80 3.06 3.09 3.06 3.20 2.74 2.56 2.58 2.31 2.25 2.38 2.42 2.66 2.77 2.97 3.08 3.20 3.11 2.92 2.75 2.73 2.95 3.32 3.65 3.88 3.94 4.29 4.86 5.28 5.49
2.39 2.32 2.34 2.46 2.49 2.55 2.43 2.48 2.53 2.54 2.71 2.79 2.72 2.66 2.78 2.81 2.92 3.20 3.15 2.81 2.68 2.47 2.52 2.45 2.32 2.43 2.42 2.58 2.71 2.77 2.55 2.40 2.29 2.27 2.37 2.56 2.67 2.96 3.23 3.66 4.25 4.82 5.18
2.34 2.44 2.43 2.29 2.25 2.34 2.21 2.48 2.41 2.47 2.71 2.78 2.53 2.81 2.82 2.80 3.08 3.32 3.43 3.52 3.18 2.85 2.76 2.71 2.56 2.36 2.38 2.42 2.47 2.43 2.18 2.12 1.86 1.84 1.93 2.05 2.17 2.32 2.57 2.88 3.39 3.80 3.94
2.38 2.51 2.47 2.38 2.25 2.32 2.42 2.71 2.66 2.60 2.83 2.83 2.85 3.06 2.99 2.90 3.04 3.17 3.37 3.64 3.75 3.34 3.10 3.06 2.87 2.50 2.37 2.39 2.42 2.16 2.20 2.14 1.88 1.77 1.69 1.66 1.76 1.87 1.94 2.16 2.48 2.70 2.84
2.22 2.43 2.56 2.45 2.31 2.36 2.55 2.75 2.74 2.89 3.07 3.11 3.20 3.28 3.22 3.03 3.12 3.15 3.18 3.43 3.78 3.71 3.30 2.91 2.69 2.37 2.23 2.08 2.34 2.12 2.17 2.19 1.98 1.83 1.65 1.56 1.60 1.64 1.64 1.68 1.88 2.06 2.24
2.28 2.33 2.43 2.43 2.37 2.42 2.57 2.64 2.61 2.93 3.08 3.11 3.09 3.11 3.08 3.23 3.20 3.08 3.18 3.36 3.65 3.74 3.32 2.75 2.61 2.55 2.56 2.43 2.44 2.30 2.17 2.13 1.92 1.82 1.65 1.59 1.58 1.60 1.62 1.62 1.66 1.72 1.76
2.31 2.24 2.30 2.31 2.20 2.23 2.46 2.49 2.55 2.85 3.01 2.89 2.91 2.94 2.72 2.79 2.88 2.74 2.89 2.96 3.11 3.37 3.26 2.90 2.81 2.77 2.73 2.63 2.61 2.55 2.30 2.07 1.80 1.79 1.62 1.56 1.59 1.59 1.60 1.59 1.62 1.63 1.66
2.04 2.03 2.05 2.08 2.14 2.30 2.42 2.43 2.46 2.45 2.48 2.56 2.79 2.90 2.68 2.67 2.58 2.60 2.64 2.62 2.69 2.80 3.05 2.95 2.79 2.84 2.77 2.76 2.70 2.48 2.28 2.17 1.80 1.74 1.71 1.62 1.57 1.53 1.51 1.51 1.51 1.61 1.76
1.82 1.87 1.96 2.07 2.15 2.23 2.30 2.40 2.46 2.36 2.33 2.38 2.50 2.57 2.56 2.52 2.45 2.56 2.49 2.51 2.58 2.75 2.90 2.95 2.83 2.91 2.90 2.85 2.89 2.68 2.66 2.48 2.23 1.94 1.89 1.78 1.77 1.73 1.65 1.53 1.48 1.53 1.70
1.88 1.96 2.04 2.05 2.05 2.04 1.98 2.05 2.14 2.15 2.27 2.21 2.11 2.12 2.14 2.19 2.18 2.24 2.09 2.28 2.55 2.71 2.77 2.81 2.80 2.98 3.12 3.16 2.97 2.90 2.94 2.86 2.61 2.26 2.12 1.95 1.89 1.80 1.81 1.77 1.65 1.56 1.56
2.00 2.02 1.98 2.02 2.00 1.74 1.93 2.00 2.00 2.09 2.18 2.17 2.06 1.95 1.85 1.85 1.79 1.82 1.79 1.89 2.20 2.43 2.57 2.73 2.71 2.82 3.03 3.22 3.34 3.31 3.16 3.04 2.93 2.71 2.60 2.49 2.32 2.25 2.13 1.98 1.92 1.78 1.64
2.13 2.08 2.01 2.00 2.03 2.10 2.17 2.00 1.85 1.82 1.91 1.95 1.92 1.89 1.66 1.56 1.75 1.73 1.79 1.77 1.79 1.97 2.15 2.40 2.49 2.42 2.62 2.93 3.23 3.14 3.29 3.34 3.23 3.19 3.19 3.02 2.70 2.48 2.21 2.05 1.95 1.67 1.54
2.34 2.32 2.25 2.17 2.14 2.12 2.12 1.91 1.90 1.81 1.79 1.79 1.80 1.84 1.83 1.75 1.82 1.95 1.91 1.83 1.72 1.69 1.82 1.90 2.00 2.13 2.38 2.74 3.03 3.00 3.08 3.19 3.19 3.15 3.20 3.12 2.78 2.56 2.27 2.12 2.11 1.81 1.54
2.47 2.40 2.33 2.34 2.28 2.28 2.35 2.14 2.15 1.98 1.95 1.95 1.98 1.99 1.96 1.86 2.02 1.99 1.88 1.85 1.80 1.79 1.90 2.00 1.93 2.01 2.25 2.41 2.63 2.74 2.71 2.79 2.70 2.61 2.78 2.96 2.88 2.77 2.55 2.30 2.15 1.99 1.63
2.51 2.51 2.50 2.46 2.45 2.47 2.71 2.53 2.37 2.17 2.15 2.14 2.24 2.23 2.28 2.11 2.11 2.06 1.89 1.90 1.89 1.92 2.05 2.01 1.96 1.91 1.92 2.17 2.44 2.47 2.66 2.87 2.72 2.50 2.26 2.43 2.59 2.81 2.88 2.58 2.33 2.20 2.07

GEFSMA_prec_meanprecacc_354.txt.gz
Total_Precipitation_Accumulation
3.63 3.57 3.52 3.52 3.47 3.39 3.53 3.57 3.45 3.79 3.96 3.53 3.10 2.94 2.99 3.10 3.04 3.05 2.83 2.61 2.56 2.83 3.37 3.75 3.73 3.56 3.36 3.16 3.10 3.08 2.97 2.72 2.52 2.31 2.20 2.28 2.24 2.17 2.13 2.09 2.03 1.95 1.87
3.79 3.87 3.70 3.55 3.31 3.19 3.26 3.39 3.51 3.96 3.94 3.75 3.34 3.08 2.97 2.94 2.77 2.70 2.81 2.97 2.78 2.70 2.94 3.42 3.87 3.92 3.86 3.64 3.39 3.31 3.22 3.15 2.93 2.44 2.17 2.23 2.31 2.29 2.25 2.20 2.05 1.90 1.80
3.58 3.54 3.30 3.13 3.09 3.15 3.35 3.38 3.58 3.76 3.47 3.51 3.35 3.11 2.85 2.62 2.46 2.47 2.66 2.86 2.73 2.71 2.95 3.22 3.55 3.82 4.08 4.25 4.12 3.96 3.63 3.33 3.12 2.76 2.36 2.19 2.15 2.14 2.09 2.08 2.05 1.92 1.76
3.03 3.33 3.10 2.97 3.24 3.25 3.38 3.69 3.87 3.77 3.75 3.79 3.49 3.06 2.78 2.65 2.28 2.20 2.22 2.41 2.63 2.42 2.78 3.10 3.22 3.43 3.94 4.57 4.81 4.74 4.33 3.90 3.58 3.26 2.88 2.56 2.40 2.21 2.00 1.86 1.88 1.83 1.67
2.90 3.25 3.27 3.37 3.38 3.50 3.56 3.37 3.82 3.89 3.85 3.88 3.37 3.11 2.75 2.47 2.30 2.11 2.02 2.01 2.26 2.47 2.61 2.70 2.88 3.10 3.70 4.66 5.12 5.17 5.02 4.55 3.92 3.72 3.56 3.25 3.02 2.67 2.29 2.03 1.90 1.78 1.67
2.97 3.40 3.27 3.26 3.31 3.54 3.65 3.60 3.77 3.83 3.59 3.59 3.20 3.13 2.70 2.20 2.11 2.07 1.89 1.91 2.06 2.11 2.45 2.79 3.09 2.84 3.20 3.90 4.42 4.98 5.32 5.03 4.36 3.98 4.04 3.94 3.77 3.36 2.74 2.36 2.19 2.02 1.87
2.99 3.46 3.23 3.52 3.45 3.48 3.54 3.60 3.76 3.69 3.40 3.59 3.70 3.25 2.61 2.15 2.12 1.89 1.86 1.94 1.99 2.01 2.39 2.86 3.14 3.07 2.80 2.87 3.26 3.85 4.67 5.01 4.74 4.35 4.21 4.19 4.23 3.99 3.34 2.83 2.59 2.33 2.15
3.21 3.24 3.48 3.45 3.50 3.67 3.65 3.63 3.77 3.54 3.18 3.47 3.85 3.90 3.17 2.73 2.23 1.69 1.82 1.98 2.19 2.30 2.39 2.56 2.74 3.02 3.05 3.23 2.93 2.90 3.69 4.60 5.03 4.88 4.54 4.19 4.10 4.00 3.70 3.41 3.04 2.75 2.56
3.46 3.48 3.46 3.40 3.43 3.25 3.35 3.44 3.46 3.47 3.39 3.30 3.60 3.97 3.55 3.08 2.63 1.99 1.86 1.91 2.19 2.51 2.52 2.58 2.64 2.93 3.10 3.57 3.68 3.31 3.15 3.67 4.54 5.28 5.20 4.55 4.03 3.83 3.76 3.66 3.53 3.23 2.93
3.27 3.11 3.06 3.23 3.25 3.04 3.13 2.80 2.97 3.16 3.16 3.00 3.28 3.35 3.38 3.39 3.30 2.59 2.11 1.93 2.07 2.28 2.43 2.38 2.45 2.74 3.08 3.47 3.83 3.61 3.06 2.90 3.38 4.44 5.08 4.97 4.52 4.08 3.77 3.77 4.04 4.02 3.61
3.01 2.68 2.72 2.94 2.92 2.84 2.76 2.67 2.87 2.70 2.61 2.68 2.93 3.14 3.24 3.35 3.22 3.02 2.55 2.49 2.43 2.28 2.23 2.27 2.50 2.71 2.97 3.29 3.74 3.52 3.27 3.03 2.87 3.11 3.77 4.32 4.52 4.41 4.23 4.44 4.90 5.14 4.93
2.75 2.44 2.34 2.55 2.68 2.74 2.71 2.68 2.74 2.61 2.63 2.76 2.78 2.85 3.12 3.15 3.12 3.25 2.78 2.61 2.62 2.34 2.28 2.41 2.46 2.70 2.80 3.01 3.12 3.23 3.15 2.97 2.81 2.77 2.99 3.35 3.69 4.00 4.15 4.46 5.01 5.45 5.67
2.40 2.34 2.36 2.50 2.54 2.60 2.48 2.53 2.58 2.60 2.77 2.84 2.77 2.71 2.83 2.86 2.97 3.25 3.19 2.84 2.71 2.50 2.57 2.49 2.36 2.46 2.44 2.61 2.75 2.81 2.57 2.43 2.33 2.32 2.41 2.59 2.69 3.03 3.36 3.83 4.46 4.98 5.30
2.36 2.47 2.47 2.35 2.30 2.39 2.24 2.52 2.45 2.51 2.76 2.83 2.56 2.86 2.88 2.85 3.13 3.36 3.46 3.55 3.21 2.89 2.81 2.75 2.59 2.39 2.41 2.45 2.50 2.45 2.20 2.14 1.88 1.87 1.95 2.08 2.19 2.36 2.64 2.97 3.55 3.98 4.08
2.40 2.56 2.55 2.47 2.34 2.39 2.47 2.74 2.69 2.63 2.87 2.86 2.87 3.09 3.03 2.94 3.08 3.20 3.41 3.67 3.77 3.37 3.13 3.09 2.91 2.54 2.41 2.42 2.45 2.18 2.23 2.17 1.90 1.79 1.71 1.68 1.78 1.90 1.98 2.21 2.57 2.81 2.97
2.28 2.51 2.67 2.56 2.41 2.42 2.59 2.77 2.75 2.90 3.09 3.13 3.22 3.30 3.25 3.06 3.14 3.18 3.21 3.46 3.81 3.73 3.31 2.93 2.72 2.40 2.25 2.09 2.35 2.13 2.18 2.20 1.99 1.85 1.68 1.59 1.63 1.67 1.67 1.71 1.94 2.18 2.35
2.35 2.42 2.53 2.52 2.43 2.45 2.58 2.65 2.62 2.94 3.10 3.12 3.11 3.12 3.09 3.25 3.23 3.10 3.21 3.39 3.67 3.76 3.34 2.76 2.62 2.57 2.58 2.45 2.45 2.31 2.18 2.15 1.94 1.83 1.67 1.60 1.61 1.63 1.65 1.65 1.70 1.82 1.89
2.36 2.29 2.35 2.36 2.23 2.25 2.48 2.50 2.56 2.87 3.02 2.90 2.93 2.96 2.73 2.81 2.90 2.76 2.91 2.98 3.13 3.40 3.29 2.92 2.84 2.79 2.75 2.64 2.62 2.56 2.31 2.08 1.82 1.82 1.63 1.57 1.60 1.61 1.63 1.63 1.67 1.69 1.80
2.07 2.07 2.09 2.11 2.16 2.32 2.44 2.44 2.47 2.47 2.49 2.57 2.80 2.93 2.71 2.69 2.60 2.61 2.66 2.64 2.71 2.82 3.08 2.98 2.82 2.86 2.79 2.78 2.71 2.50 2.30 2.19 1.82 1.76 1.74 1.64 1.59 1.54 1.53 1.54 1.56 1.67 1.88
1.87 1.93 2.02 2.10 2.17 2.25 2.32 2.42 2.48 2.38 2.35 2.40 2.55 2.62 2.59 2.55 2.47 2.58 2.51 2.53 2.60 2.77 2.93 2.98 2.85 2.93 2.92 2.88 2.92 2.71 2.70 2.52 2.27 1.96 1.91 1.79 1.78 1.74 1.66 1.55 1.50 1.56 1.78
1.94 2.00 2.08 2.08 2.07 2.06 2.00 2.10 2.18 2.20 2.36 2.30 2.19 2.16 2.17 2.22 2.21 2.27 2.11 2.31 2.58 2.74 2.81 2.83 2.83 3.01 3.15 3.19 3.01 2.94 2.98 2.90 2.65 2.29 2.15 1.97 1.91 1.81 1.82 1.79 1.68 1.59 1.60
2.05 2.07 2.02 2.05 2.04 1.75 1.94 2.02 2.03 2.13 2.26 2.26 2.12 1.99 1.88 1.87 1.82 1.86 1.83 1.93 2.23 2.46 2.60 2.75 2.73 2.84 3.05 3.24 3.37 3.34 3.21 3.09 2.98 2.75 2.63 2.52 2.34 2.27 2.16 2.00 1.94 1.80 1.66
2.18 2.12 2.03 2.03 2.05 2.12 2.19 2.03 1.88 1.85 1.94 1.98 1.94 1.91 1.67 1.58 1.77 1.75 1.81 1.79 1.82 1.99 2.17 2.42 2.50 2.44 2.64 2.96 3.27 3.18 3.33 3.39 3.27 3.22 3.22 3.04 2.73 2.50 2.23 2.07 1.97 1.69 1.56
2.36 2.34 2.27 2.19 2.18 2.15 2.15 1.94 1.93 1.82 1.81 1.81 1.83 1.86 1.85 1.77 1.83 1.97 1.94 1.86 1.74 1.72 1.85 1.92 2.01 2.15 2.40 2.77 3.08 3.04 3.12 3.22 3.21 3.17 3.22 3.14 2.80 2.59 2.29 2.13 2.12 1.82 1.55
2.48 2.41 2.35 2.37 2.31 2.31 2.38 2.17 2.18 1.99 1.97 1.98 2.01 2.02 1.99 1.88 2.04 2.01 1.90 1.88 1.82 1.82 1.92 2.02 1.95 2.03 2.28 2.44 2.66 2.77 2.74 2.81 2.71 2.62 2.80 2.98 2.90 2.79 2.57 2.32 2.16 2.01 1.64
2.52 2.53 2.52 2.49 2.47 2.50 2.73 2.55 2.39 2.18 2.17 2.16 2.27 2.26 2.29 2.13 2.13 2.08 1.92 1.93 1.92 1.94 2.07 2.02 1.98 1.92 1.94 2.18 2.46 2.49 2.69 2.91 2.75 2.51 2.27 2.45 2.60 2.84 2.91 2.61 2.35 2.20 2.08